Jaffrey, NH

11:54 AM EST on November 22, 2017 (GMT -0500)
Jaffrey Airport-Silver Ranch

Weather History for KAFN - September, 2012

Change the Weather History Date:

Sunday, September 30, 2012

  Actual Average Record
Temperature  
Mean Temperature 56 °F -  
Max Temperature 61 °F 61 °F 73 °F (2010)
Min Temperature 51 °F 40 °F 32 °F (2000)
Degree Days  
Heating Degree Days 9    
Growing Degree Days 6 (Base 50)    
Moisture  
Dew Point 49 °F    
Average Humidity 83    
Maximum Humidity 89    
Minimum Humidity 67    
Precipitation  
Precipitation 0.04 in - - ()
Sea Level Pressure  
Sea Level Pressure 29.84 in    
Wind  
Wind Speed 1 mph (South)    
Max Wind Speed 8 mph    
Max Gust Speed -    
Visibility 7 miles    
Events Rain    
Averages and records for this station are not official NWS values.
T = Trace of Precipitation, MM = Missing Value Source: NWS Daily Summary

Daily Weather History Graph

Daily Weather History Graph

Search for Another Location

Airport or City:

Trip Planner

Search our weather history database for the weather conditions in past years. The results will help you decide how hot, cold, wet, or windy it might be!

Date:

Astronomy

Sep. 30, 2012 Rise Set
Actual Time 6:44 AM EDT 6:30 PM EDT
Civil Twilight 6:16 AM EDT 6:58 PM EDT
Nautical Twilight 5:43 AM EDT 7:31 PM EDT
Astronomical Twilight 5:10 AM EDT 8:04 PM EDT
Moon 6:30 PM EDT (9/30) 7:14 AM EDT (9/30)
Length of Visible Light 12h 42m
Length of Day
11h 45m
Full, 100% of the Moon is Illuminated
Sep 30
Full
Oct 8
Last Quarter
Oct 15
New
Oct 21
First Quarter
Oct 29
Full

Hourly Weather History & Observations

Time (EDT) Temp. Dew Point Humidity Pressure Visibility Wind Dir Wind Speed Gust Speed Precip Events Conditions
12:26 AM 53.6 °F 50.0 °F 88% 29.92 in 2.5 mi Calm Calm - N/A   Overcast
12:44 AM 53.6 °F 50.0 °F 88% 29.91 in 3.0 mi Calm Calm - 0.00 in   Overcast
12:52 AM 54.0 °F 50.0 °F 86% 29.94 in 2.5 mi Calm Calm - 0.01 in   Overcast
1:00 AM 53.6 °F 50.0 °F 88% 29.91 in 2.5 mi Calm Calm - N/A   Overcast
1:07 AM 53.6 °F 50.0 °F 88% 29.92 in 3.0 mi Calm Calm - N/A   Overcast
1:26 AM 53.6 °F 50.0 °F 88% 29.90 in 3.0 mi NE 3.5 mph - N/A   Overcast
1:37 AM 53.6 °F 50.0 °F 88% 29.91 in 7.0 mi Calm Calm - N/A   Overcast
1:52 AM 54.0 °F 48.9 °F 83% 29.92 in 10.0 mi Calm Calm - N/A   Overcast
2:26 AM 53.6 °F 50.0 °F 88% 29.91 in 10.0 mi Calm Calm - N/A   Overcast
2:52 AM 53.1 °F 48.9 °F 86% 29.92 in 6.0 mi Calm Calm - N/A   Overcast
3:52 AM 54.0 °F 48.9 °F 83% 29.90 in 9.0 mi Calm Calm - N/A   Overcast
4:52 AM 53.1 °F 48.9 °F 86% 29.91 in 6.0 mi Calm Calm - N/A   Overcast
5:52 AM 53.1 °F 48.9 °F 86% 29.90 in 3.0 mi Calm Calm - N/A   Overcast
6:07 AM 53.6 °F 48.2 °F 82% 29.88 in 7.0 mi Calm Calm - N/A   Overcast
6:25 AM 53.6 °F 48.2 °F 82% 29.87 in 2.0 mi Calm Calm - N/A   Overcast
6:32 AM 53.6 °F 48.2 °F 82% 29.87 in 1.8 mi Calm Calm - N/A   Overcast
6:41 AM 53.6 °F 48.2 °F 82% 29.88 in 2.0 mi Calm Calm - N/A   Overcast
6:52 AM 53.1 °F 48.9 °F 86% 29.89 in 1.8 mi Calm Calm - N/A   Overcast
7:00 AM 53.6 °F 48.2 °F 82% 29.88 in 2.5 mi Calm Calm - N/A   Overcast
7:07 AM 53.6 °F 48.2 °F 82% 29.88 in 5.0 mi Calm Calm - N/A   Overcast
7:40 AM 53.6 °F 48.2 °F 82% 29.88 in 2.5 mi Calm Calm - N/A   Overcast
7:52 AM 53.1 °F 50.0 °F 89% 29.89 in 3.0 mi Calm Calm - N/A   Overcast
8:41 AM 53.6 °F 48.2 °F 82% 29.87 in 10.0 mi Calm Calm - N/A   Overcast
8:52 AM 54.0 °F 48.9 °F 83% 29.89 in 10.0 mi Calm Calm - N/A   Overcast
9:52 AM 54.0 °F 48.9 °F 83% 29.89 in 10.0 mi Calm Calm - N/A   Overcast
9:59 AM 53.6 °F 50.0 °F 88% 29.86 in 10.0 mi Calm Calm - N/A   Overcast
10:26 AM 53.6 °F 50.0 °F 88% 29.84 in 6.0 mi North 3.5 mph - 0.01 in Rain Light Rain
10:41 AM 53.6 °F 50.0 °F 88% 29.83 in 10.0 mi Variable 3.5 mph - 0.01 in Rain Light Rain
10:52 AM 54.0 °F 50.0 °F 86% 29.86 in 4.0 mi Calm Calm - 0.01 in   Overcast
11:52 AM 55.0 °F 51.1 °F 86% 29.83 in 5.0 mi Calm Calm - N/A   Overcast
12:09 PM 55.4 °F 50.0 °F 82% 29.81 in 9.0 mi Calm Calm - N/A   Overcast
12:52 PM 57.0 °F 50.0 °F 77% 29.81 in 10.0 mi Calm Calm - N/A   Overcast
1:32 PM 59.0 °F 50.0 °F 72% 29.77 in 10.0 mi ENE 4.6 mph - 0.01 in   Overcast
1:52 PM 57.9 °F 50.0 °F 75% 29.79 in 10.0 mi SE 3.5 mph - 0.01 in   Overcast
2:05 PM 57.2 °F 48.2 °F 72% 29.77 in 10.0 mi Calm Calm - N/A   Overcast
2:50 PM 59.0 °F 48.2 °F 67% 29.76 in 10.0 mi Calm Calm - N/A   Overcast
3:52 PM 60.1 °F 50.0 °F 69% 29.74 in 10.0 mi Variable 3.5 mph - 0.00 in   Mostly Cloudy
4:52 PM 60.1 °F 50.0 °F 69% 29.74 in 10.0 mi SSW 5.8 mph - N/A   Scattered Clouds
5:52 PM 57.9 °F 50.0 °F 75% 29.75 in 10.0 mi SSW 4.6 mph - N/A   Mostly Cloudy
6:52 PM 57.0 °F 51.1 °F 81% 29.75 in 10.0 mi SSW 3.5 mph - 0.00 in   Mostly Cloudy
7:19 PM 55.4 °F 51.8 °F 88% 29.72 in 10.0 mi SSW 5.8 mph - N/A   Partly Cloudy
7:35 PM 55.4 °F 51.8 °F 88% 29.72 in 10.0 mi SSW 6.9 mph - N/A   Mostly Cloudy
7:52 PM 55.9 °F 51.1 °F 84% 29.75 in 10.0 mi SSW 6.9 mph - 0.00 in Rain Light Rain
8:52 PM 55.0 °F 50.0 °F 83% 29.73 in 10.0 mi Variable 3.5 mph - 0.00 in   Scattered Clouds
9:52 PM 54.0 °F 48.9 °F 83% 29.74 in 10.0 mi SSW 8.1 mph - N/A   Scattered Clouds
10:52 PM 52.0 °F 46.9 °F 83% 29.73 in 10.0 mi SSW 6.9 mph - 0.01 in   Clear
11:52 PM 51.1 °F 46.0 °F 83% 29.73 in 10.0 mi South 8.1 mph - N/A   Clear